This demonstration page uses our WeatherBlox Daily Observations layout. Learn more.

Left ArrowRight Arrow

Hourly Observations for July 26, 2015

Temp ( °F °C ) Dew Point ( °F °C ) Humidity (%) Winds ( mph kmh ) Pressure ( in mb ) Visibility ( mi km ) Precip ( " mm )
12:52 am 00:52 Clear 81 27.2 75 23.9 82 82 S 9 15 29.90 1013 10 16 0.00 0.00
1:52 am 01:52 Clear 79 26.1 75 23.9 88 88 S 6 9 29.90 1013 10 16 0.00 0.00
2:52 am 02:52 Clear 79 26.1 75 23.9 88 88 SSE 7 11 29.89 1012 10 16 0.00 0.00
3:52 am 03:52 Clear 78 25.6 75 23.9 90 90 S 7 11 29.88 1012 10 16 0.00 0.00
4:52 am 04:52 Clear 78 25.6 74 23.3 87 87 SSE 5 7 29.88 1012 10 16 0.00 0.00
5:52 am 05:52 Clear 76 24.4 74 23.3 94 94 S 5 7 29.90 1012 9 14 0.00 0.00
6:52 am 06:52 Sunny 77 25 74 23.3 90 90 S 7 11 29.89 1012 9 14 0.00 0.00
7:52 am 07:52 Sunny 80 26.7 75 23.9 85 85 S 7 11 29.90 1013 10 16 0.00 0.00
8:52 am 08:52 Sunny 83 28.3 74 23.3 74 74 SSW 8 13 29.91 1013 10 16 0.00 0.00
9:52 am 09:52 Sunny 85 29.4 73 22.8 68 68 SW 8 13 29.91 1013 10 16 0.00 0.00
10:52 am 10:52 Sunny 88 31.1 74 23.3 63 63 WSW 7 11 29.92 1013 10 16 0.00 0.00
11:52 am 11:52 Sunny 89 31.7 74 23.3 61 61 SW 8 13 29.92 1013 10 16 0.00 0.00
12:52 pm 12:52 Mostly Sunny 92 33.3 71 21.7 51 51 W 9 15 29.93 1014 10 16 0.00 0.00
1:52 pm 13:52 Sunny 92 33.3 72 22.2 52 52 W 7 11 29.91 1013 10 16 0.00 0.00
2:52 pm 14:52 Sunny 91 32.8 72 22.2 54 54 SW 13 20 29.90 1013 10 16 0.00 0.00
3:52 pm 15:52 Sunny 92 33.3 70 21.1 49 49 SSW 10 17 29.89 1012 10 16 0.00 0.00
4:52 pm 16:52 Sunny 91 32.8 69 20.6 49 49 SW 14 22 29.89 1012 10 16 0.00 0.00
5:52 pm 17:52 Sunny 90 32.2 71 21.7 54 54 SSW 12 19 29.89 1012 10 16 0.00 0.00
6:52 pm 18:52 Sunny 89 31.7 74 23.3 61 61 SSW 7 11 29.87 1012 10 16 0.00 0.00
7:52 pm 19:52 Sunny 87 30.6 73 22.8 63 63 SSW 3 6 29.86 1011 10 16 0.00 0.00
8:52 pm 20:52 Clear 83 28.3 75 23.9 77 77 S 5 7 29.87 1012 10 16 0.00 0.00
9:52 pm 21:52 Clear 82 27.8 75 23.9 79 79 S 5 7 29.88 1012 10 16 0.00 0.00
10:52 pm 22:52 Clear 82 27.8 75 23.9 79 79 Calm 29.89 1012 10 16 0.00 0.00
11:52 pm 23:52 Clear 82 27.8 76 24.4 82 82 S 7 11 29.89 1012 10 16 0.00 0.00

Powered by AerisWeather